| time (UTC) | temp F | wind direction | speed MPH | gust MPH | rain 1hr in | rain 24hr in | rain mn in | humidity % | barometer mb |
| 20260503225004 | 84 | 118 | 0.0 | 6.0 | 0.00 | 0.00 | 0.00 | 46 | 1018.0 |
| 20260503224549 | 84 | 188 | 0.0 | 7.0 | 0.00 | 0.00 | 0.00 | 45 | 1018.3 |
| 20260503224503 | 84 | 7 | 0.0 | 7.0 | 0.00 | 0.00 | 0.00 | 47 | 1018.0 |
| 20260503224002 | 84 | 255 | 1.0 | 7.0 | 0.00 | 0.00 | 0.00 | 46 | 1018.1 |
| 20260503223502 | 84 | 290 | 0.0 | 4.0 | 0.00 | 0.00 | 0.00 | 46 | 1018.2 |
| 20260503223059 | 83 | 131 | 0.0 | 4.0 | 0.00 | 0.00 | 0.00 | 46 | 1018.6 |
| 20260503223002 | 84 | 297 | 0.0 | 5.0 | 0.00 | 0.00 | 0.00 | 47 | 1018.4 |
| 20260503222501 | 83 | 123 | 0.0 | 5.0 | 0.00 | 0.00 | 0.00 | 47 | 1018.4 |
| 20260503222002 | 83 | 310 | 1.0 | 5.0 | 0.00 | 0.00 | 0.00 | 48 | 1018.4 |
| 20260503221553 | 82 | 0 | 0.0 | 9.0 | 0.00 | 0.00 | 0.00 | 47 | 1018.6 |
| 20260503221500 | 82 | 256 | 0.0 | 9.0 | 0.00 | 0.00 | 0.00 | 48 | 1018.5 |
| 20260503221001 | 83 | 331 | 4.0 | 9.0 | 0.00 | 0.00 | 0.00 | 47 | 1018.4 |
| 20260503220501 | 83 | 186 | 2.0 | 8.0 | 0.00 | 0.00 | 0.00 | 46 | 1018.5 |
| 20260503220105 | 83 | 230 | 1.0 | 7.0 | 0.00 | 0.00 | 0.00 | 45 | 1018.8 |
| 20260503220001 | 84 | 311 | 2.0 | 6.0 | 0.00 | 0.00 | 0.00 | 46 | 1018.5 |
| 20260503215501 | 84 | 355 | 0.0 | 7.0 | 0.00 | 0.00 | 0.00 | 45 | 1018.7 |
| 20260503215000 | 84 | 178 | 0.0 | 7.0 | 0.00 | 0.00 | 0.00 | 46 | 1018.7 |
| 20260503214947 | 83 | 314 | 1.0 | 6.0 | 0.00 | 0.00 | 0.00 | 46 | 1018.9 |
| 20260503214548 | 83 | 285 | 0.0 | 5.0 | 0.00 | 0.00 | 0.00 | 45 | 1019.1 |
| 20260503214223 | 84 | 176 | 2.0 | 6.0 | 0.00 | 0.00 | 0.00 | 45 | 1019.0 |
| 20260503213502 | 84 | 205 | 1.0 | 6.0 | 0.00 | 0.00 | 0.00 | 45 | 1019.1 |
| 20260503213048 | 84 | 0 | 0.0 | 4.0 | 0.00 | 0.00 | 0.00 | 45 | 1019.4 |
| 20260503213002 | 84 | 287 | 0.0 | 4.0 | 0.00 | 0.00 | 0.00 | 44 | 1019.1 |
| 20260503212502 | 84 | 359 | 0.0 | 8.0 | 0.00 | 0.00 | 0.00 | 45 | 1019.2 |
| 20260503212000 | 84 | 15 | 1.0 | 8.0 | 0.00 | 0.00 | 0.00 | 46 | 1019.2 |
| 20260503211605 | 84 | 291 | 0.0 | 5.0 | 0.00 | 0.00 | 0.00 | 44 | 1019.4 |
| 20260503211501 | 84 | 298 | 0.0 | 5.0 | 0.00 | 0.00 | 0.00 | 45 | 1019.1 |
| 20260503211001 | 84 | 156 | 1.0 | 5.0 | 0.00 | 0.00 | 0.00 | 44 | 1019.3 |
| 20260503210501 | 84 | 326 | 1.0 | 8.0 | 0.00 | 0.00 | 0.00 | 46 | 1019.3 |
| 20260503210055 | 84 | 0 | 0.0 | 7.0 | 0.00 | 0.00 | 0.00 | 43 | 1019.6 |
| 20260503210002 | 84 | 186 | 1.0 | 8.0 | 0.00 | 0.00 | 0.00 | 43 | 1019.4 |
| 20260503205502 | 85 | 308 | 2.0 | 8.0 | 0.00 | 0.00 | 0.00 | 44 | 1019.5 |
| 20260503205451 | 85 | 112 | 1.0 | 6.0 | 0.00 | 0.00 | 0.00 | 43 | 1019.6 |
| 20260503204553 | 84 | 352 | 1.0 | 7.0 | 0.00 | 0.00 | 0.00 | 43 | 1019.8 |
| 20260503204501 | 84 | 2 | 2.0 | 7.0 | 0.00 | 0.00 | 0.00 | 44 | 1019.6 |
| 20260503204251 | 84 | 280 | 1.0 | 7.0 | 0.00 | 0.00 | 0.00 | 45 | 1019.7 |
| 20260503203502 | 84 | 271 | 0.0 | 8.0 | 0.00 | 0.00 | 0.00 | 45 | 1019.9 |
| 20260503203047 | 83 | 0 | 0.0 | 7.0 | 0.00 | 0.00 | 0.00 | 43 | 1020.3 |
| 20260503203001 | 84 | 25 | 0.0 | 8.0 | 0.00 | 0.00 | 0.00 | 44 | 1020.0 |
| 20260503202501 | 85 | 330 | 1.0 | 6.0 | 0.00 | 0.00 | 0.00 | 43 | 1020.2 |
| 20260503202001 | 85 | 91 | 1.0 | 10.0 | 0.00 | 0.00 | 0.00 | 44 | 1020.2 |
| 20260503201547 | 84 | 0 | 1.0 | 10.0 | 0.00 | 0.00 | 0.00 | 43 | 1020.7 |
| 20260503201501 | 85 | 252 | 0.0 | 10.0 | 0.00 | 0.00 | 0.00 | 44 | 1020.5 |
| 20260503201001 | 85 | 207 | 0.0 | 4.0 | 0.00 | 0.00 | 0.00 | 43 | 1020.6 |
| 20260503200501 | 85 | 229 | 0.0 | 4.0 | 0.00 | 0.00 | 0.00 | 42 | 1021.0 |
| 20260503200050 | 84 | 276 | 0.0 | 4.0 | 0.00 | 0.00 | 0.00 | 44 | 1021.2 |
| 20260503200000 | 85 | 34 | 1.0 | 4.0 | 0.00 | 0.00 | 0.00 | 44 | 1020.9 |
| 20260503195730 | 85 | 236 | 0.0 | 2.0 | 0.00 | 0.00 | 0.00 | 42 | 1021.0 |
| 20260503195002 | 85 | 214 | 0.0 | 4.0 | 0.00 | 0.00 | 0.00 | 44 | 1021.2 |
| 20260503194555 | 83 | 0 | 0.0 | 5.0 | 0.00 | 0.00 | 0.00 | 44 | 1021.5 |
| 20260503194501 | 84 | 262 | 1.0 | 4.0 | 0.00 | 0.00 | 0.00 | 45 | 1021.3 |
| 20260503194002 | 84 | 308 | 0.0 | 4.0 | 0.00 | 0.00 | 0.00 | 43 | 1021.4 |
| 20260503193501 | 84 | 195 | 0.0 | 5.0 | 0.00 | 0.00 | 0.00 | 47 | 1021.4 |
| 20260503193118 | 82 | 0 | 0.0 | 7.0 | 0.00 | 0.00 | 0.00 | 47 | 1021.7 |
| 20260503193001 | 82 | 203 | 0.0 | 5.0 | 0.00 | 0.00 | 0.00 | 47 | 1021.6 |
| 20260503192726 | 82 | 232 | 0.0 | 3.0 | 0.00 | 0.00 | 0.00 | 46 | 1021.5 |
| 20260503192001 | 83 | 184 | 0.0 | 5.0 | 0.00 | 0.00 | 0.00 | 46 | 1021.6 |
| 20260503191548 | 83 | 0 | 0.0 | 5.0 | 0.00 | 0.00 | 0.00 | 44 | 1022.0 |
| 20260503191500 | 84 | 18 | 0.0 | 5.0 | 0.00 | 0.00 | 0.00 | 44 | 1021.7 |
| 20260503191001 | 85 | 10 | 0.0 | 6.0 | 0.00 | 0.00 | 0.00 | 44 | 1021.7 |
| 20260503190720 | 84 | 169 | 2.0 | 6.0 | 0.00 | 0.00 | 0.00 | 44 | 1021.8 |
| 20260503190052 | 83 | 0 | 0.0 | 2.0 | 0.00 | 0.00 | 0.00 | 43 | 1022.0 |
| 20260503190001 | 84 | 226 | 0.0 | 2.0 | 0.00 | 0.00 | 0.00 | 45 | 1021.8 |
| 20260503185503 | 85 | 276 | 0.0 | 2.0 | 0.00 | 0.00 | 0.00 | 43 | 1021.8 |
| 20260503185002 | 85 | 135 | 0.0 | 2.0 | 0.00 | 0.00 | 0.00 | 47 | 1022.0 |
| 20260503184941 | 84 | 31 | 0.0 | 4.0 | 0.00 | 0.00 | 0.00 | 48 | 1022.1 |
| 20260503184545 | 84 | 0 | 0.0 | 4.0 | 0.00 | 0.00 | 0.00 | 45 | 1022.3 |
| 20260503184225 | 83 | 42 | 1.0 | 4.0 | 0.00 | 0.00 | 0.00 | 45 | 1022.4 |
| 20260503183501 | 84 | 129 | 0.0 | 2.0 | 0.00 | 0.00 | 0.00 | 45 | 1022.4 |
| 20260503183049 | 82 | 0 | 0.0 | 4.0 | 0.00 | 0.00 | 0.00 | 48 | 1022.6 |
| 20260503183001 | 83 | 336 | 0.0 | 4.0 | 0.00 | 0.00 | 0.00 | 48 | 1022.6 |
| 20260503182749 | 82 | 336 | 0.0 | 4.0 | 0.00 | 0.00 | 0.00 | 46 | 1022.6 |
| 20260503182001 | 83 | 188 | 0.0 | 6.0 | 0.00 | 0.00 | 0.00 | 47 | 1022.6 |
| 20260503181618 | 82 | 0 | 1.0 | 6.0 | 0.00 | 0.00 | 0.00 | 47 | 1022.9 |
| 20260503181501 | 82 | 257 | 1.0 | 6.0 | 0.00 | 0.00 | 0.00 | 47 | 1022.6 |
| 20260503181226 | 82 | 198 | 0.0 | 6.0 | 0.00 | 0.00 | 0.00 | 45 | 1022.7 |
| 20260503180501 | 82 | 232 | 0.0 | 7.0 | 0.00 | 0.00 | 0.00 | 47 | 1022.8 |
| 20260503180059 | 82 | 0 | 1.0 | 7.0 | 0.00 | 0.00 | 0.00 | 46 | 1023.0 |
| 20260503180001 | 82 | 342 | 1.0 | 7.0 | 0.00 | 0.00 | 0.00 | 47 | 1022.8 |
| 20260503175500 | 83 | 314 | 0.0 | 6.0 | 0.00 | 0.00 | 0.00 | 48 | 1022.9 |
| 20260503175001 | 82 | 205 | 0.0 | 2.0 | 0.00 | 0.00 | 0.00 | 47 | 1022.8 |
| 20260503174555 | 82 | 0 | 0.0 | 1.0 | 0.00 | 0.00 | 0.00 | 51 | 1023.1 |
| 20260503174501 | 82 | 37 | 0.0 | 2.0 | 0.00 | 0.00 | 0.00 | 48 | 1022.9 |
| 20260503174002 | 82 | 276 | 0.0 | 2.0 | 0.00 | 0.00 | 0.00 | 49 | 1023.1 |
| 20260503173501 | 81 | 231 | 0.0 | 3.0 | 0.00 | 0.00 | 0.00 | 50 | 1023.3 |
| 20260503173056 | 81 | 0 | 0.0 | 4.0 | 0.00 | 0.00 | 0.00 | 49 | 1023.5 |
| 20260503173001 | 81 | 19 | 1.0 | 3.0 | 0.00 | 0.00 | 0.00 | 50 | 1023.2 |
| 20260503172501 | 81 | 30 | 0.0 | 3.0 | 0.00 | 0.00 | 0.00 | 51 | 1023.3 |
| 20260503172248 | 80 | 172 | 0.0 | 5.0 | 0.00 | 0.00 | 0.00 | 50 | 1023.4 |
| 20260503171543 | 80 | 0 | 0.0 | 5.0 | 0.00 | 0.00 | 0.00 | 50 | 1023.7 |
| 20260503171502 | 80 | 191 | 1.0 | 5.0 | 0.00 | 0.00 | 0.00 | 51 | 1023.4 |
| 20260503171002 | 80 | 171 | 1.0 | 5.0 | 0.00 | 0.00 | 0.00 | 50 | 1023.5 |
| 20260503170503 | 80 | 97 | 0.0 | 6.0 | 0.00 | 0.00 | 0.00 | 50 | 1023.6 |
| 20260503151000 | 78 | 249 | 0.0 | 0.0 | 0.00 | 0.00 | 0.00 | 56 | 1023.8 |
| 20260503150502 | 78 | 249 | 0.0 | 0.0 | 0.00 | 0.00 | 0.00 | 56 | 1023.7 |
| 20260503131001 | 69 | 42 | 0.0 | 0.0 | 0.00 | 0.00 | 0.00 | 70 | 1023.1 |
| 20260503130501 | 69 | 42 | 0.0 | 0.0 | 0.00 | 0.00 | 0.00 | 71 | 1023.0 |
| 20260503110450 | 61 | 42 | 0.0 | 0.0 | 0.00 | 0.00 | 0.00 | 87 | 1022.1 |
| 20260503100104 | 61 | 0 | 0.0 | 0.0 | 0.00 | 0.00 | 0.00 | 85 | 1022.4 |
| 20260503090402 | 64 | 42 | 0.0 | 0.0 | 0.00 | 0.00 | 0.00 | 79 | 1022.2 |
| 20260503081558 | 64 | 0 | 0.0 | 0.0 | 0.00 | 0.00 | 0.00 | 78 | 1022.8 |
| 20260503080900 | 65 | 42 | 0.0 | 0.0 | 0.00 | 0.00 | 0.00 | 79 | 1022.6 |
| 20260503080359 | 64 | 42 | 0.0 | 0.0 | 0.00 | 0.00 | 0.00 | 80 | 1022.9 |
| 20260503080118 | 64 | 42 | 0.0 | 0.0 | 0.00 | 0.00 | 0.00 | 80 | 1022.9 |
| 20260503072820 | 63 | 42 | 0.0 | 0.0 | 0.00 | 0.00 | 0.00 | 81 | 1022.7 |
| 20260503072319 | 63 | 42 | 0.0 | 0.0 | 0.00 | 0.00 | 0.00 | 81 | 1022.7 |
| 20260503071812 | 63 | 42 | 0.0 | 0.0 | 0.00 | 0.00 | 0.00 | 80 | 1022.6 |
| 20260503071559 | 63 | 0 | 0.0 | 0.0 | 0.00 | 0.00 | 0.00 | 80 | 1022.9 |
| 20260503071307 | 63 | 42 | 0.0 | 0.0 | 0.00 | 0.00 | 0.00 | 80 | 1022.7 |
| 20260503071055 | 63 | 42 | 0.0 | 0.0 | 0.00 | 0.00 | 0.00 | 79 | 1022.7 |
| 20260503070307 | 63 | 42 | 0.0 | 0.0 | 0.00 | 0.00 | 0.00 | 78 | 1022.8 |
| 20260503060112 | 66 | 0 | 0.0 | 0.0 | 0.00 | 0.00 | 0.00 | 72 | 1023.6 |
| 20260503054802 | 67 | 42 | 0.0 | 0.0 | 0.00 | 0.00 | 0.00 | 70 | 1023.5 |
| 20260503054553 | 67 | 0 | 0.0 | 0.0 | 0.00 | 0.00 | 0.00 | 70 | 1023.8 |
| 20260503054302 | 67 | 42 | 0.0 | 0.0 | 0.00 | 0.00 | 0.00 | 70 | 1023.5 |
| 20260503053802 | 67 | 42 | 0.0 | 0.0 | 0.00 | 0.00 | 0.00 | 69 | 1023.5 |
| 20260503053302 | 67 | 42 | 0.0 | 0.0 | 0.00 | 0.00 | 0.00 | 69 | 1023.5 |
| 20260503053055 | 67 | 0 | 0.0 | 0.0 | 0.00 | 0.00 | 0.00 | 69 | 1023.8 |
| 20260503052803 | 67 | 42 | 0.0 | 0.0 | 0.00 | 0.00 | 0.00 | 69 | 1023.6 |
| 20260503052305 | 68 | 42 | 0.0 | 0.0 | 0.00 | 0.00 | 0.00 | 68 | 1023.5 |
| 20260503051803 | 68 | 42 | 0.0 | 0.0 | 0.00 | 0.00 | 0.00 | 68 | 1023.5 |
| 20260503051554 | 67 | 0 | 0.0 | 0.0 | 0.00 | 0.00 | 0.00 | 68 | 1023.8 |
| 20260503051303 | 68 | 42 | 0.0 | 0.0 | 0.00 | 0.00 | 0.00 | 68 | 1023.4 |
| 20260503050804 | 68 | 42 | 0.0 | 0.0 | 0.00 | 0.00 | 0.00 | 68 | 1023.5 |
| 20260503050524 | 68 | 42 | 0.0 | 0.0 | 0.00 | 0.00 | 0.00 | 69 | 1023.6 |
| 20260503050053 | 67 | 0 | 0.0 | 0.0 | 0.00 | 0.00 | 0.00 | 68 | 1023.8 |
| 20260503045803 | 68 | 42 | 0.0 | 0.0 | 0.00 | 0.00 | 0.00 | 68 | 1023.5 |
| 20260503045305 | 68 | 42 | 0.0 | 0.0 | 0.00 | 0.00 | 0.00 | 69 | 1023.5 |
| 20260503044803 | 68 | 42 | 0.0 | 0.0 | 0.00 | 0.00 | 0.00 | 69 | 1023.4 |
| 20260503044619 | 67 | 0 | 0.0 | 0.0 | 0.00 | 0.00 | 0.00 | 67 | 1023.8 |
| 20260503044528 | 68 | 42 | 0.0 | 0.0 | 0.00 | 0.00 | 0.00 | 68 | 1023.5 |
| 20260503044024 | 68 | 42 | 0.0 | 0.0 | 0.00 | 0.00 | 0.00 | 68 | 1023.5 |
| 20260503043524 | 68 | 42 | 0.0 | 0.0 | 0.00 | 0.00 | 0.00 | 68 | 1023.4 |
| 20260503043050 | 68 | 0 | 0.0 | 0.0 | 0.00 | 0.00 | 0.00 | 67 | 1023.6 |
| 20260503042804 | 68 | 42 | 0.0 | 0.0 | 0.00 | 0.00 | 0.00 | 67 | 1023.2 |
| 20260503042525 | 68 | 42 | 0.0 | 0.0 | 0.00 | 0.00 | 0.00 | 67 | 1023.1 |
| 20260503041804 | 68 | 42 | 0.0 | 0.0 | 0.00 | 0.00 | 0.00 | 67 | 1023.0 |
| 20260503041554 | 68 | 0 | 0.0 | 0.0 | 0.00 | 0.00 | 0.00 | 67 | 1023.3 |
| 20260503041303 | 68 | 42 | 0.0 | 0.0 | 0.00 | 0.00 | 0.00 | 67 | 1023.0 |
| 20260503040804 | 68 | 42 | 0.0 | 0.0 | 0.00 | 0.00 | 0.00 | 67 | 1022.9 |
| 20260503040302 | 68 | 42 | 0.0 | 0.0 | 0.00 | 0.00 | 0.00 | 67 | 1023.0 |
| 20260503040049 | 68 | 0 | 0.0 | 0.0 | 0.00 | 0.00 | 0.00 | 67 | 1023.2 |
| 20260503035804 | 68 | 42 | 0.0 | 0.0 | 0.00 | 0.00 | 0.00 | 68 | 1023.1 |
| 20260503035305 | 68 | 42 | 0.0 | 0.0 | 0.00 | 0.00 | 0.00 | 68 | 1023.1 |
| 20260503034804 | 68 | 42 | 0.0 | 0.0 | 0.00 | 0.00 | 0.00 | 68 | 1023.1 |
| 20260503034548 | 67 | 0 | 0.0 | 0.0 | 0.00 | 0.00 | 0.00 | 68 | 1023.4 |
| 20260503034303 | 68 | 42 | 0.0 | 0.0 | 0.00 | 0.00 | 0.00 | 68 | 1023.2 |
| 20260503033803 | 68 | 42 | 0.0 | 0.0 | 0.00 | 0.00 | 0.00 | 68 | 1023.2 |
| 20260503033303 | 68 | 42 | 0.0 | 0.0 | 0.00 | 0.00 | 0.00 | 68 | 1023.3 |
| 20260503033046 | 68 | 0 | 0.0 | 0.0 | 0.00 | 0.00 | 0.00 | 68 | 1023.5 |
| 20260503032804 | 68 | 42 | 0.0 | 0.0 | 0.00 | 0.00 | 0.00 | 68 | 1023.1 |
| 20260503032304 | 68 | 42 | 0.0 | 0.0 | 0.00 | 0.00 | 0.00 | 68 | 1023.1 |
| 20260503031804 | 68 | 42 | 0.0 | 0.0 | 0.00 | 0.00 | 0.00 | 68 | 1022.9 |
| 20260503031544 | 68 | 0 | 0.0 | 0.0 | 0.00 | 0.00 | 0.00 | 67 | 1023.2 |
| 20260503031300 | 68 | 42 | 0.0 | 0.0 | 0.00 | 0.00 | 0.00 | 68 | 1022.8 |
| 20260503030747 | 68 | 42 | 0.0 | 0.0 | 0.00 | 0.00 | 0.00 | 68 | 1022.8 |
| 20260503030246 | 68 | 42 | 0.0 | 0.0 | 0.00 | 0.00 | 0.00 | 68 | 1022.7 |
| 20260503030055 | 68 | 0 | 0.0 | 0.0 | 0.00 | 0.00 | 0.00 | 67 | 1022.8 |
| 20260503025729 | 68 | 42 | 0.0 | 0.0 | 0.00 | 0.00 | 0.00 | 68 | 1022.6 |
| 20260503025229 | 68 | 42 | 0.0 | 0.0 | 0.00 | 0.00 | 0.00 | 68 | 1022.4 |
| 20260503024724 | 68 | 42 | 0.0 | 0.0 | 0.00 | 0.00 | 0.00 | 68 | 1022.3 |
| 20260503024557 | 68 | 0 | 0.0 | 0.0 | 0.00 | 0.00 | 0.00 | 67 | 1022.5 |
| 20260503024224 | 68 | 42 | 0.0 | 0.0 | 0.00 | 0.00 | 0.00 | 68 | 1022.3 |
| 20260503023955 | 68 | 42 | 0.0 | 0.0 | 0.00 | 0.00 | 0.00 | 67 | 1022.3 |
| 20260503023439 | 68 | 42 | 0.0 | 0.0 | 0.00 | 0.00 | 0.00 | 67 | 1022.1 |
| 20260503023049 | 68 | 0 | 0.0 | 0.0 | 0.00 | 0.00 | 0.00 | 67 | 1022.4 |
| 20260503022702 | 68 | 42 | 0.0 | 0.0 | 0.00 | 0.00 | 0.00 | 67 | 1022.0 |
| 20260503022431 | 69 | 42 | 0.0 | 1.0 | 0.00 | 0.00 | 0.00 | 67 | 1021.8 |
| 20260503021702 | 69 | 42 | 0.0 | 1.0 | 0.00 | 0.00 | 0.00 | 67 | 1021.9 |
| 20260503021547 | 68 | 0 | 0.0 | 4.0 | 0.00 | 0.00 | 0.00 | 66 | 1021.9 |
| 20260503021202 | 69 | 188 | 0.0 | 4.0 | 0.00 | 0.00 | 0.00 | 66 | 1021.7 |
| 20260503020701 | 69 | 188 | 0.0 | 4.0 | 0.00 | 0.00 | 0.00 | 66 | 1021.5 |
| 20260503020646 | 69 | 252 | 0.0 | 0.0 | 0.00 | 0.00 | 0.00 | 66 | 1021.7 |
| 20260503020046 | 69 | 0 | 0.0 | 1.0 | 0.00 | 0.00 | 0.00 | 65 | 1021.8 |
| 20260503015648 | 69 | 252 | 0.0 | 0.0 | 0.00 | 0.00 | 0.00 | 65 | 1021.7 |
| 20260503015141 | 69 | 232 | 0.0 | 0.0 | 0.00 | 0.00 | 0.00 | 65 | 1021.5 |
| 20260503015127 | 69 | 232 | 0.0 | 0.0 | 0.00 | 0.00 | 0.00 | 65 | 1021.4 |
| 20260503014553 | 69 | 0 | 0.0 | 0.0 | 0.00 | 0.00 | 0.00 | 64 | 1021.5 |
| 20260503014133 | 70 | 232 | 0.0 | 0.0 | 0.00 | 0.00 | 0.00 | 64 | 1021.2 |
| 20260503013633 | 70 | 232 | 0.0 | 1.0 | 0.00 | 0.00 | 0.00 | 64 | 1021.3 |
| 20260503013132 | 70 | 232 | 0.0 | 2.0 | 0.00 | 0.00 | 0.00 | 64 | 1021.3 |
| 20260503013057 | 70 | 0 | 0.0 | 1.0 | 0.00 | 0.00 | 0.00 | 63 | 1021.4 |
| 20260503012630 | 70 | 342 | 0.0 | 2.0 | 0.00 | 0.00 | 0.00 | 63 | 1021.1 |
| 20260503012129 | 71 | 167 | 0.0 | 0.0 | 0.00 | 0.00 | 0.00 | 63 | 1021.1 |
| 20260503011851 | 71 | 159 | 0.0 | 2.0 | 0.00 | 0.00 | 0.00 | 62 | 1021.0 |
| 20260503011552 | 70 | 0 | 0.0 | 2.0 | 0.00 | 0.00 | 0.00 | 61 | 1021.3 |
| 20260503011129 | 71 | 159 | 0.0 | 2.0 | 0.00 | 0.00 | 0.00 | 61 | 1020.9 |
| 20260503010628 | 71 | 170 | 0.0 | 4.0 | 0.00 | 0.00 | 0.00 | 62 | 1020.8 |
| 20260503010119 | 72 | 170 | 0.0 | 4.0 | 0.00 | 0.00 | 0.00 | 61 | 1020.8 |
| 20260503010048 | 71 | 0 | 0.0 | 6.0 | 0.00 | 0.00 | 0.00 | 60 | 1020.9 |
| 20260503005609 | 72 | 176 | 0.0 | 6.0 | 0.00 | 0.00 | 0.00 | 60 | 1020.5 |
| 20260503005337 | 72 | 265 | 0.0 | 6.0 | 0.00 | 0.00 | 0.00 | 59 | 1020.6 |
| 20260503004609 | 73 | 47 | 0.0 | 4.0 | 0.00 | 0.00 | 0.00 | 59 | 1020.5 |
| 20260503004547 | 72 | 0 | 0.0 | 5.0 | 0.00 | 0.00 | 0.00 | 58 | 1020.7 |
| 20260503004109 | 73 | 189 | 0.0 | 4.0 | 0.00 | 0.00 | 0.00 | 58 | 1020.5 |
| 20260503003609 | 74 | 104 | 0.0 | 4.0 | 0.00 | 0.00 | 0.00 | 59 | 1020.5 |
| 20260503003109 | 74 | 234 | 0.0 | 4.0 | 0.00 | 0.00 | 0.00 | 58 | 1020.5 |
| 20260503003052 | 74 | 0 | 0.0 | 4.0 | 0.00 | 0.00 | 0.00 | 57 | 1020.8 |
| 20260503002603 | 74 | 192 | 0.0 | 1.0 | 0.00 | 0.00 | 0.00 | 58 | 1020.6 |
| 20260503002103 | 74 | 283 | 0.0 | 1.0 | 0.00 | 0.00 | 0.00 | 57 | 1020.6 |
| 20260503001602 | 74 | 333 | 0.0 | 0.0 | 0.00 | 0.00 | 0.00 | 58 | 1020.6 |
| 20260503001552 | 73 | 0 | 0.0 | 1.0 | 0.00 | 0.00 | 0.00 | 57 | 1020.8 |
| 20260503001102 | 74 | 333 | 0.0 | 0.0 | 0.00 | 0.00 | 0.00 | 57 | 1020.6 |
| 20260503000615 | 74 | 160 | 0.0 | 0.0 | 0.00 | 0.00 | 0.00 | 58 | 1020.5 |
| 20260503000054 | 74 | 221 | 0.0 | 0.0 | 0.00 | 0.00 | 0.00 | 58 | 1020.4 |
| 20260503000052 | 73 | 0 | 0.0 | 0.0 | 0.00 | 0.00 | 0.00 | 58 | 1020.6 |
| 20260502235807 | 74 | 221 | 0.0 | 0.0 | 0.00 | 0.00 | 0.00 | 58 | 1020.4 |
| 20260502235045 | 74 | 197 | 0.0 | 0.0 | 0.00 | 0.00 | 0.00 | 57 | 1020.2 |
| 20260502234601 | 74 | 0 | 0.0 | 1.0 | 0.00 | 0.00 | 0.00 | 57 | 1020.4 |
| 20260502234544 | 74 | 197 | 0.0 | 1.0 | 0.00 | 0.00 | 0.00 | 57 | 1020.2 |
| 20260502234043 | 74 | 197 | 0.0 | 1.0 | 0.00 | 0.00 | 0.00 | 57 | 1020.2 |
| 20260502233542 | 74 | 269 | 0.0 | 1.0 | 0.00 | 0.00 | 0.00 | 57 | 1020.2 |
| 20260502233050 | 74 | 0 | 0.0 | 2.0 | 0.00 | 0.00 | 0.00 | 55 | 1020.4 |
| 20260502233034 | 75 | 269 | 0.0 | 2.0 | 0.00 | 0.00 | 0.00 | 56 | 1020.1 |
| 20260502232529 | 75 | 231 | 0.0 | 1.0 | 0.00 | 0.00 | 0.00 | 55 | 1020.1 |
| 20260502232030 | 76 | 283 | 0.0 | 1.0 | 0.00 | 0.00 | 0.00 | 55 | 1020.1 |
| 20260502231549 | 76 | 0 | 0.0 | 0.0 | 0.00 | 0.00 | 0.00 | 55 | 1020.3 |
| 20260502231529 | 76 | 79 | 0.0 | 1.0 | 0.00 | 0.00 | 0.00 | 55 | 1020.1 |
| 20260502231029 | 76 | 141 | 0.0 | 2.0 | 0.00 | 0.00 | 0.00 | 57 | 1020.1 |
| 20260502230529 | 76 | 141 | 0.0 | 2.0 | 0.00 | 0.00 | 0.00 | 57 | 1020.1 |
| 20260502230053 | 75 | 0 | 0.0 | 2.0 | 0.00 | 0.00 | 0.00 | 55 | 1020.3 |
| 20260502230028 | 76 | 20 | 0.0 | 1.0 | 0.00 | 0.00 | 0.00 | 56 | 1020.1 |
| 20260502225526 | 76 | 9 | 0.0 | 1.0 | 0.00 | 0.00 | 0.00 | 56 | 1020.2 |